{"data":{"norad_id":37384,"intl_designator":"2011-013A","name":"BEIDOU-2 IGSO-3 (C08)","alt_names":[],"object_type":"PAYLOAD","status":"ACTIVE","operator":null,"country":"PRC","launch_date":"2011-04-09","launch_site_code":"XICLF","launch_vehicle":null,"mission":null,"orbit_class":"UNKNOWN","rcs_meters":31.6228,"size_class":null,"mass_kg":null,"dimensions":null,"purposes":["comms","nav"],"wikipedia_slug":null,"has_3d_model":false,"image_url":null,"decayed_at":null,"tle_current":{"epoch":"2026-09-19T19:40:48.084672Z","epoch_age_seconds":73189,"freshness":"FRESH","line1":"1 37384U 11013A   26262.82000098 -.00000154  00000+0  00000+0 0  9995","line2":"2 37384  62.5493  39.2692 0034975 183.8049 177.1911  1.00291145 56616","mean_motion":1.00291145,"eccentricity":0.0034975,"inclination_deg":62.5493,"raan_deg":39.2692,"arg_perigee_deg":183.8049,"mean_anomaly_deg":177.1911,"bstar":0,"rev_number":5661,"period_min":1435.8196827846,"perigee_km":35633.716352417,"apogee_km":35928.620694554,"semimajor_km":42159.305523485,"source":"CELESTRAK","updated_at":"2026-09-20T09:00:46.671172Z"}}}